STARLINK-4446, 53505

Orbit data source: Space-Track

STARLINK-4446, 53505 is a payload satellite owned by SpaceX/Seattle (US) in SSO that was launched on Fri, 12 Aug 2022 UTC via an FALCON 9 launch vehicle from the Air Force Western Test Range (AFWTR). Payload-class satellites include a variety of spacecraft equipped with specific instruments for various scientific and technological missions. These include communications satellites like Starlink; space stations such as the ISS; scientific satellites like the Hubble; Earth observation satellites from companies like Planet Labs, Umbra, and HawkEye 360; GPS; miniature CubeSats for education and research; and military/defense satellites.

Loading next visibility...
Identifier
53505, 2022-099AS
Orbit
SSO
Country
Flag of USUS
Related business
Manufacturer
SpaceX/Seattle
Mission
Operational Commercial Communications
Bus & Motor
STARLINK, Unknown motor
Mass
300 kg wet, ~275 kg dry
Launch date (UTC)
2022-08-12 (3 years ago)
Launch vehicle
FALCON 9
Launch site
Air Force Western Test Range (AFWTR)
Object type
Payload
Rocket body
Debris
Shape & HBR
Box + 1 Pan, 10.1 m
Radar Cross Section
13.562 m², Large (>1 m²)

Expand to show TLE details & history
Last TLE update: 13 hours ago

TLE from 13 hours ago
0 STARLINK-4446
1 53505U 22099AS  25293.29667298  .00000001  00000-0  45890-5 0  9992
2 53505  97.6051  52.7609 0001719 256.8454 103.2578 15.01268604174921
Epoch: 2025-10-20T07:07Z
TLE epoch observation values (Epoch: 2025-10-20T07:07:12.545Z)
Latitude
-0.00008°
Longitude
-83.04238°
Altitude
566.316 km
Speed
7.578 km/s
True Right ascension
03h 31m 02s
True Declination
0° 00' 00"
Sunlit
Object was in full shadow at epoch
Visualization orbit readout
Latitude
Unknown
Longitude
Unknown
Altitude
Unknown
Speed
Unknown
Apparent Right ascension
Unknown
Apparent Declination
Unknown
Sunlit
N/A
Visualization observer readout
Local Sidereal Time
15:07:37
Azimuth
Unknown
Elevation
Unknown
Doppler factor
Unknown
Orbital elements
Apogee altitude
561.175 km
Perigee altitude
558.79 km
Semi-major axis
6,938.12 km
Eccentricity
0.00017
Inclination
97.6051°
RAAN
52.7609°
Arg. of periapsis
256.8454°
True anomaly
103.27697°
Mean anomaly
103.2578°
Eccentric anomaly
103.26739°
Mean motion
3.75561 °/min
Orbital period
95.86 mins
BSTAR
0.000004589
Loading maneuver chart data...
Computing Atmospheric mass density...
Loading historical data...
Loading historical data...
Loading historical data...
Loading historical data...
Loading historical data...
Loading historical data...
Loading historical data...

Documentation

Showing up to 5 results
|